Miscellaneous Local Product
Issued by NWS Hastings, NE

Home | Current Version | Previous Version | Graphics & Text | Print | Product List | Glossary On
Versions: 1 2 3 4 5 6 7 8 9 10 11 12 13 14 15 16 17 18 19 20 21 22 23 24 25 26 27 28 29 30 31 32 33 34 35 36 37 38 39 40 41 42 43 44 45 46 47 48 49 50
940
AXUS43 KGID 220002
MISGRI

GID CWA HOURLY WEATHER ROUNDUP
NATIONAL WEATHER SERVICE HASTINGS NE
700 PM CDT FRI APR 21 2017

NOTE: "FAIR" INDICATES FEW OR NO CLOUDS BELOW 12,000 FEET WITH NO
SIGNIFICANT WEATHER AND/OR OBSTRUCTIONS TO VISIBILITY.

...SOUTH CENTRAL NEBRASKA...

CITY           SKY/WX    TMP DP  RH WIND       PRES   REMARKS
GRAND ISLAND   CLOUDY    55  37  50 NE17      30.15R
HASTINGS       CLOUDY    56  36  47 E16G24    30.15R
KEARNEY        PTSUNNY   55  32  41 E17       30.15R
ORD            CLOUDY    54  35  48 NE13      30.16R
YORK           CLOUDY    54  37  54 NE14      30.14S
AURORA         PTSUNNY   55  36  49 E17G25    30.15R
LEXINGTON      CLOUDY    55  33  42 E13       30.14R
HOLDREGE       CLOUDY    55  29  37 E17       30.13R
HEBRON         LGT RAIN  51  38  60 NE15G21   30.11F

...NEBRASKA PANHANDLE...

CITY           SKY/WX    TMP DP  RH WIND       PRES   REMARKS
CHADRON        MOSUNNY   55  38  52 CALM      30.14R
ALLIANCE       PTSUNNY   50  36  58 S8        30.14S
SCOTTSBLUFF    CLOUDY    47  40  76 SW6       30.16S
SIDNEY         CLOUDY    42  40  92 S7        30.17R

...WESTERN AND NORTH CENTRAL NEBRASKA...

CITY           SKY/WX    TMP DP  RH WIND       PRES   REMARKS
VALENTINE      CLOUDY    57  30  35 SE14      30.18R
AINSWORTH      CLOUDY    53  37  54 E10       30.19S
ONEILL         CLOUDY    54  35  49 E10       30.19S
BROKEN BOW     PTSUNNY   55  35  47 E13       30.16R
IMPERIAL       CLOUDY    49  40  71 S3        30.14S
NORTH PLATTE   CLOUDY    54  35  48 E14       30.15R
MCCOOK         CLOUDY    53  37  54 NE10      30.13S

...EASTERN NEBRASKA...

CITY           SKY/WX    TMP DP  RH WIND       PRES   REMARKS
NORFOLK        CLOUDY    55  37  50 NE9       30.16R
SO SIOUX CITY  CLOUDY    57  37  47 NE10      30.17R
TEKAMAH        CLOUDY    55  42  61 NE7       30.15S
COLUMBUS       CLOUDY    54  39  58 NE16      30.16F
ALBION         CLOUDY    55  37  50 NE12      30.18R
OMAHA EPPLEY   CLOUDY    56  37  49 N12       30.13S
OFFUTT AFB     CLOUDY    56  37  49 N9        30.12R
MILLARD        CLOUDY    58  39  49 NE8       30.13S
LINCOLN        PTSUNNY   56  39  53 NE16      30.14R
NEBRASKA CITY  CLOUDY    55  31  40 NE10      30.10F
BEATRICE       CLOUDY    54  39  57 NE6       30.11S
FALLS CITY     PTSUNNY   54  38  54 NE6       30.07S

...NORTHERN KANSAS...

CITY           SKY/WX    TMP DP  RH WIND       PRES   REMARKS
GOODLAND       CLOUDY    46  39  76 NE10      30.12S
HILL CITY      LGT RAIN  49  45  86 E5        30.12S FOG
NORTON         CLOUDY    54  36  50 NE6       30.11S
PHILLIPSBURG   PTSUNNY   54  36  50 NE8       30.13R
SMITH CENTER   DRIZZLE   50  36  57 NE12G22   30.13R
HAYS           LGT RAIN  49  43  80 N13       30.09R
RUSSELL        RAIN      46  41  82 NE13      30.09R
CONCORDIA      CLOUDY    50  42  74 NE6       30.09S
SALINA         LGT RAIN  50  43  77 N9        30.07R
TOPEKA         LGT RAIN  53  42  66 N8        30.03S



USA.gov is the U.S. government's official web portal to all federal, state and local government web resources and services.